Content
SEND FEEDBACK

Daily
Averages
Monthly
Summary
Croatia

SEGET DONJI, CROATIA


Home > Europe > Croatia
Elevation: 69 feet     Latitude: 43 31N     Longitude: 016 18E

WEATHER
 
SELECT A DAY
Number of Records: 288,246;   Date Range: 1/10/97 - 9/22/14
 
SHARE

PRINT THIS DATA

[ ← Previous Day ]
WEATHER ALMANAC - NOVEMBER 13, 2013
[ Next Day → ]
[ °C ]   °F
Weather ElementAverageHighLow
Temperature62.3 °F68 °F (10:30 am)55.4 °F (12:30 am)
Dewpoint50.4 °F55.4 °F (10:00 am)42.8 °F (10:00 pm)
Humidity64.1 %82 % (12:30 am)41 % (10:00 pm)
Barometer30.03 in30.08 in (10:00 pm)30.01 in (4:30 am)
Wind Speed5 mph13.8 mph (6:30 pm)
Weather ElementAverage
Visibility10.6 mi
Wind DirectionSE (138.7 °)

Weather ElementTotal
Precipitation---
Heating Degree Days3.3 (Base 65)
Growing Degree Days11.7 (Base 50)
Averaged from 55 records on November 13, 2013
WEATHER CONDITIONS BREAKOUT
WIND DIRECTION BREAKOUT
WEATHER BY HOUR - NOVEMBER 13, 2013
[ °C ]   °F
Local TimeTemperatureDewpointHumidityBarometerVisibilityWind DirectionWind SpeedGust SpeedPrecipitationEventsConditions
12:30 AM55.4 °F50.0 °F82 %30.04 inNorth (350°)5.8 mphClear
1:00 AM57.0 °F50.0 °F71 %30.05 in12.0 miNNW (330°)6.7 mphPartly Cloudy
1:00 AM57.2 °F50.0 °F77 %30.04 inNNW (330°)5.8 mphClear
1:30 AM59.0 °F51.8 °F77 %30.04 inNNW (330°)4.6 mphClear
2:00 AM60.8 °F51.8 °F72 %30.04 inNNW (330°)4.6 mphClear
2:30 AM60.8 °F51.8 °F72 %30.04 inNNW (340°)5.8 mphClear
3:00 AM60.8 °F51.8 °F72 %30.04 inNNW (340°)5.8 mphClear
3:30 AM60.8 °F50.0 °F68 %30.04 inNNW (330°)6.9 mphClear
4:00 AM60.0 °F50.0 °F61 %30.04 in12.0 miNorth (350°)4.5 mphPartly Cloudy
4:00 AM60.8 °F50.0 °F68 %30.04 inNorth (350°)4.6 mphClear
4:30 AM60.8 °F50.0 °F68 %30.01 in6.2 miNorth (360°)5.8 mphScattered Clouds
5:00 AM60.8 °F50.0 °F68 %30.01 in6.2 miNorth (350°)4.6 mphScattered Clouds
5:30 AM59.0 °F50.0 °F72 %30.01 in6.2 miVariable3.5 mphScattered Clouds
6:00 AM59.0 °F50.0 °F72 %30.01 inNorth (360°)4.6 mphClear
6:30 AM60.8 °F50.0 °F68 %30.01 in6.2 miVariable1.2 mphScattered Clouds
7:00 AM60.0 °F50.0 °F61 %30.02 in12.0 miNorth4.5 mphPartly Cloudy
7:00 AM60.8 °F50.0 °F68 %30.01 in6.2 miVariable3.5 mphScattered Clouds
7:30 AM60.8 °F50.0 °F68 %30.01 inVariable1.2 mphClear
8:00 AM60.8 °F51.8 °F72 %30.04 inCalmClear
8:30 AM60.8 °F53.6 °F77 %30.04 in6.2 miVariable3.5 mphPartly Cloudy
9:00 AM62.6 °F53.6 °F72 %30.04 inCalmClear
9:30 AM64.4 °F53.6 °F68 %30.04 in6.2 miVariable1.2 mphPartly Cloudy
10:00 AM65.0 °F55.0 °F61 %30.04 in19.0 miCalmMostly Cloudy
10:00 AM64.4 °F55.4 °F73 %30.04 inCalmClear
10:30 AM68.0 °F53.6 °F60 %30.04 inVariable3.5 mphClear
11:00 AM66.2 °F53.6 °F64 %30.04 inVariable1.2 mphClear
11:30 AM68.0 °F53.6 °F60 %30.04 inCalmClear
12:00 PM66.2 °F53.6 °F64 %30.01 inCalmClear
12:30 PM66.2 °F53.6 °F64 %30.04 inCalmClear
1:00 PM67.0 °F53.0 °F52 %30.03 in19.0 miCalmOvercast
1:00 PM68.0 °F53.6 °F60 %30.01 inCalmClear
1:30 PM68.0 °F55.4 °F64 %30.01 inVariable3.5 mphClear
2:00 PM66.2 °F55.4 °F68 %30.01 inNNW (340°)4.6 mphClear
2:30 PM66.2 °F55.4 °F68 %30.01 in6.2 miNNW (330°)5.8 mphRainLight Rain
3:00 PM64.4 °F55.4 °F73 %30.01 inNNW (330°)5.8 mphClear
3:30 PM64.4 °F53.6 °F68 %30.01 inCalmClear
4:00 PM64.0 °F53.0 °F59 %30.03 in19.0 miNW (320°)4.5 mphPartly Cloudy
4:00 PM64.4 °F53.6 °F68 %30.01 in6.2 miNW (320°)5.8 mphPartly Cloudy
4:30 PM62.6 °F51.8 °F68 %30.04 inNNW (340°)5.8 mphClear
5:00 PM62.6 °F50.0 °F63 %30.04 inNorth (350°)5.8 mphClear
5:30 PM62.6 °F48.2 °F59 %30.04 inNNE (20°)9.2 mphClear
6:00 PM62.6 °F48.2 °F59 %30.04 inNNE (30°)10.4 mphClear
6:30 PM62.6 °F46.4 °F55 %30.04 inNNE (20°)13.8 mphClear
7:00 PM62.0 °F47.0 °F47 %30.05 in19.0 miENE (60°)8.9 mphScattered Clouds
7:00 PM60.8 °F46.4 °F59 %30.04 inENE (60°)8.1 mphClear
7:30 PM62.6 °F46.4 °F55 %30.04 inNNE (30°)11.5 mphClear
8:00 PM60.8 °F46.4 °F59 %30.04 inNNE (30°)9.2 mphClear
8:30 PM62.6 °F46.4 °F55 %30.04 inNNE (30°)9.2 mphClear
9:00 PM60.8 °F44.6 °F55 %30.06 inENE (60°)9.2 mphClear
9:30 PM60.8 °F44.6 °F55 %30.06 inNE (40°)8.1 mphClear
10:00 PM61.0 °F43.0 °F41 %30.08 in12.0 miNNE (30°)6.7 mphScattered Clouds
10:00 PM60.8 °F42.8 °F52 %30.06 inNNE (30°)6.9 mphClear
10:30 PM60.8 °F42.8 °F52 %30.06 inNE (50°)9.2 mphClear
11:00 PM59.0 °F44.6 °F59 %30.06 inNE (40°)11.5 mphClear
11:30 PM60.8 °F44.6 °F55 %30.06 inNE (40°)10.4 mphClear
Hourly data recorded from LDSP, located miles away from Seget Donji, Croatia







STORIES FROM OUR PARTNERS